#timestamp,LO_Frequency,Hit 
1499583615.7,286046997.8,N
1499583635.6,286046996.8,N
1499583655.4,286046996.5,N
1499583675.2,286046998.7,N
1499583695.1,286046996.5,N
1499583696.0,286046996.5,N
1499583715.8,286046997.3,N
1499583735.7,286046997.5,N
1499583755.5,286046997.8,N
1499583775.3,286046995.8,N
1499583795.2,286046993.9,N
1499583815.0,286046993.8,N
1499583815.9,286046993.8,N
1499583835.7,286046993.4,N
1499583855.6,286046993.3,N
1499583875.4,286046994.6,N
1499583895.3,286046994.1,N
1499583915.1,286046996.4,N
1499583916.0,286046996.4,N
1499583935.8,286046993.7,N
1499583955.7,286046993.5,N
1499583975.5,286046995.6,N
1499583995.4,286046997.9,N
1499584015.2,286046993.9,N
1499584035.0,286046992.0,N
1499584035.9,286046992.0,N
1499584055.8,286046992.0,N
1499584075.6,286046992.2,N
1499584095.4,286046991.2,N
1499584115.3,286046990.5,N
1499584135.1,286046990.2,N
1499584155.9,286046991.0,N
1499584175.7,286046993.2,N
1499584195.5,286046993.1,N
1499584215.4,286046992.7,N
1499584235.2,286046992.8,N
1499584255.0,286046992.8,N
1499584255.9,286046992.8,N
1499584275.8,286046992.3,N
1499584295.6,286046991.7,N
1499584315.4,286046992.1,N
1499584335.3,286046994.4,N
1499584355.1,286046991.8,N
1499584375.9,286046992.4,N
1499584395.7,286046993.2,N
1499584415.5,286046990.3,N
1499584435.4,286046990.3,N
1499584455.2,286046993.0,N
1499584475.0,286046992.5,N
1499584475.9,286046992.5,N
1499584495.8,286046990.1,N
1499584515.6,286046991.2,N
1499584535.5,286046988.8,N
1499584555.3,286046989.0,N
1499584575.1,286046992.8,N
1499584595.9,286046990.7,N
1499584615.7,286046988.9,N
1499584635.5,286046987.4,N
1499584655.4,286046985.3,N
1499584675.2,286046985.8,N
1499584695.1,286046986.4,N
1499584696.0,286046986.4,N
1499584715.8,286046986.2,N
1499584735.6,286046985.7,N
1499584755.5,286046988.2,N
1499584775.3,286046988.4,N
1499584795.1,286046985.5,N
1499584815.9,286046986.5,N
1499584835.7,286046987.7,N
1499584855.6,286046987.8,N
1499584875.4,286046987.1,N
1499584895.2,286046989.7,N
1499584915.1,286046987.4,N
1499584916.0,286046987.4,N
1499584935.8,286046988.4,N
1499584955.6,286046988.4,N
1499584975.5,286046985.7,N
1499584995.3,286046982.9,N
1499585015.2,286046983.4,N
1499585035.9,286046982.4,N
1499585055.7,286046983.6,N
1499585075.6,286046983.1,N
1499585095.4,286046985.1,N
1499585115.2,286046982.3,N
1499585135.1,286046984.7,N
1499585136.0,286046984.7,N
1499585155.8,286046988.3,N
1499585175.7,286046981.1,N
1499585195.5,286046978.0,N
1499585245.4,286046980.8,Y
1499585255.3,286046988.9,N
1499585275.1,286046999.7,N
1499585295.8,286047000.7,N
1499585315.7,286046998.6,N
1499585335.5,286046999.6,N
1499585355.4,286046999.0,N
1499585375.2,286046998.6,N
1499585395.0,286046998.6,N
1499585395.9,286046998.6,N
1499585415.8,286046998.2,N
1499585435.6,286046998.7,N
1499585455.4,286047001.0,N
1499585475.3,286047000.2,N
1499585495.1,286047000.4,N
1499585515.9,286047000.3,N
1499585535.7,286046998.3,N
1499585555.5,286046998.6,N
1499585575.4,286046998.4,N
1499585595.2,286046999.5,N
1499585615.0,286046999.1,N
1499585615.9,286046999.1,N
1499585635.8,286046997.3,N
1499585655.6,286046997.7,N
1499585675.5,286046997.2,N
1499585695.3,286046997.1,N
1499585715.1,286046997.4,N
1499585735.9,286046997.3,N
1499585755.7,286046994.9,N
1499585775.5,286046997.4,N
1499585795.4,286046997.7,N
1499585815.2,286046995.4,N
1499585835.0,286046997.6,N
1499585836.0,286046997.6,N
1499585855.8,286046997.4,N
1499585875.6,286046997.8,N
1499585895.5,286046995.7,N
1499585915.3,286046997.4,N
1499585935.1,286046995.1,N
1499585955.9,286046993.6,N
1499585975.7,286046993.6,N
1499585995.5,286046991.8,N
1499586015.4,286046993.9,N
1499586035.2,286046993.9,N
1499586055.1,286046994.6,N
1499586056.0,286046994.6,N
1499586075.8,286046992.3,N
1499586095.6,286046992.7,N
1499586115.5,286046991.0,N
1499586135.3,286046988.9,N
1499586155.1,286046989.7,N
1499586175.9,286046989.1,N
1499586195.7,286046987.2,N
1499586215.6,286046987.5,N
1499586235.4,286046988.2,N
1499586255.2,286046987.4,N
1499586275.1,286046987.6,N
1499586276.0,286046987.6,N
1499586295.8,286046987.7,N
1499586315.6,286046988.2,N
1499586335.5,286046987.3,N
1499586355.3,286046987.9,N
1499586375.2,286046988.1,N
1499586395.9,286046987.7,N
1499586415.7,286046985.7,N
1499586435.6,286046985.9,N
1499586455.4,286046986.8,N
1499586475.2,286046984.4,N
1499586495.1,286046984.8,N
1499586496.0,286046984.8,N
1499586515.8,286046984.6,N
1499586535.7,286046984.1,N
1499586555.5,286046985.5,N
1499586575.3,286046986.6,N
1499586595.2,286046985.0,N
1499586615.0,286046982.5,N
1499586615.9,286046982.5,N
1499586635.7,286046982.2,N
1499586655.6,286046984.9,N
1499586675.4,286046986.4,N
1499586695.3,286046986.8,N
1499586715.1,286046984.2,N
1499586716.0,286046984.2,N
1499586735.8,286046983.7,N
1499586755.7,286046986.4,N
1499586775.5,286046984.6,N
1499586795.3,286046984.6,N
1499586815.2,286046984.1,N
1499586835.0,286046984.0,N
1499586835.9,286046984.0,N
1499586855.8,286046980.5,N
1499586875.6,286046982.9,N
1499586895.4,286046982.4,N
1499586915.3,286046982.4,N
1499586935.1,286046982.4,N
1499586955.8,286046980.6,N
1499586975.7,286046979.0,N
1499586995.5,286046981.6,N
1499587015.3,286046979.1,N
1499587035.2,286046979.6,N
1499587055.0,286046979.0,N
1499587055.9,286046979.0,N
1499587075.8,286046981.4,N
1499587095.6,286046978.9,N
1499587115.4,286046982.0,N
1499587135.3,286046979.0,N
1499587155.1,286046981.2,N
1499587175.8,286046979.1,N
1499587195.7,286046979.5,N
